FW0266 Weather Reports


Display with metric or nautical units.
time (UTC)temp
F
wind
direction
speed
MPH
gust
MPH
rain 1hr
in
rain 24hr
in
rain mn
in
humidity
%
barometer
mb
20260901021600 81 103 11.0 17.0 0.00 0.00 0.00 55 1006.9
20260901014601 83 138 10.0 17.0 0.00 0.00 0.00 52 1006.7
20260901013059 84 102 11.0 20.0 0.00 0.00 0.00 51 1006.6
20260901011559 84 103 9.0 18.0 0.00 0.00 0.00 50 1006.5
20260901010057 84 124 12.0 20.0 0.00 0.00 0.00 50 1006.6
20260901004555 85 97 11.0 19.0 0.00 0.00 0.00 48 1006.4
20260901003055 86 139 11.0 17.0 0.00 0.00 0.00 46 1006.4
20260901001559 86 103 12.0 17.0 0.00 0.00 0.00 45 1006.5
20260831234613 88 143 10.0 20.0 0.00 0.00 0.00 42 1006.6
20260831233108 87 128 13.0 19.0 0.00 0.00 0.00 41 1006.6
20260831231553 87 131 13.0 21.0 0.00 0.00 0.00 44 1006.8
20260831230053 87 107 13.0 22.0 0.00 0.00 0.00 43 1006.8
20260831224549 88 160 10.0 22.0 0.00 0.00 0.00 43 1006.8
20260831223049 87 108 9.0 20.0 0.00 0.00 0.00 45 1007.1
20260831221550 87 131 10.0 18.0 0.00 0.00 0.00 46 1007.1
20260831220047 86 101 10.0 17.0 0.00 0.00 0.00 46 1007.4
20260831214551 86 115 11.0 21.0 0.00 0.00 0.00 47 1007.6
20260831213044 87 103 12.0 20.0 0.00 0.00 0.00 45 1007.7
20260831211545 86 122 9.0 18.0 0.00 0.00 0.00 47 1007.8
20260831210046 86 121 11.0 20.0 0.00 0.00 0.00 47 1008.2
20260831204542 88 125 6.0 21.0 0.00 0.00 0.00 46 1008.3
20260831203042 87 96 10.0 20.0 0.00 0.00 0.00 46 1008.6
20260831201546 86 104 6.0 22.0 0.00 0.00 0.00 47 1008.8
20260831200038 85 37 7.0 21.0 0.00 0.00 0.00 47 1009.0
20260831194537 84 98 11.0 25.0 0.00 0.00 0.00 47 1009.2
20260831193035 84 101 11.0 22.0 0.00 0.00 0.00 48 1009.5
20260831191535 84 88 9.0 21.0 0.00 0.00 0.00 50 1009.6
20260831190038 85 104 10.0 22.0 0.00 0.00 0.00 47 1009.4
20260831184537 85 102 10.0 20.0 0.00 0.00 0.00 46 1009.4
20260831183033 85 96 10.0 20.0 0.00 0.00 0.00 47 1009.6
20260831181530 85 110 13.0 18.0 0.00 0.00 0.00 46 1009.4
20260831180030 83 106 7.0 19.0 0.00 0.00 0.00 46 1009.6
20260831174530 83 109 10.0 19.0 0.00 0.00 0.00 43 1009.3
20260831173026 81 110 10.0 18.0 0.00 0.00 0.00 47 1009.4
20260831171526 79 128 10.0 15.0 0.00 0.00 0.00 52 1009.3
20260831170029 76 114 14.0 26.0 0.00 0.00 0.00 56 1009.1
20260831164550 79 88 8.0 15.0 0.00 0.00 0.00 53 1009.1
20260831163016 78 127 6.0 10.0 0.00 0.00 0.00 54 1008.9
20260831161518 77 96 5.0 12.0 0.00 0.00 0.00 57 1008.6
20260831160016 77 108 6.0 16.0 0.00 0.00 0.00 60 1008.3
20260831154511 78 105 9.0 16.0 0.00 0.00 0.00 54 1008.5
20260831153008 78 120 7.0 19.0 0.00 0.00 0.00 54 1008.1
20260831151514 77 132 14.0 26.0 0.00 0.00 0.00 56 1007.9
20260831150007 77 90 10.0 18.0 0.00 0.00 0.00 54 1007.9
20260831144504 77 103 9.0 19.0 0.00 0.00 0.00 56 1008.0
20260831143002 78 93 11.0 19.0 0.00 0.00 0.00 52 1007.8
20260831141501 78 94 12.0 22.0 0.00 0.00 0.00 54 1007.8
20260831134559 0 0.0 0.0 0.00 0.00 0.00 1007.3
20260831133051 0 0.0 0.0 0.00 0.00 0.00 1007.2
20260831131546 0 35 8.0 18.0 0.00 0.00 0.00 1006.9
20260831130046 77 91 6.0 17.0 0.00 0.00 0.00 55 1006.8
20260831124540 78 108 10.0 17.0 0.00 0.00 0.00 55 1006.5
20260831123046 78 77 10.0 17.0 0.00 0.00 0.00 55 1006.4
20260831121538 79 136 8.0 13.0 0.00 0.00 0.00 55 1006.3
20260831120037 79 128 5.0 11.0 0.00 0.00 0.00 55 1006.0
20260831114547 80 93 6.0 16.0 0.00 0.00 0.00 55 1006.3
20260831113037 80 120 6.0 13.0 0.00 0.00 0.00 55 1006.3
20260831111538 79 109 5.0 15.0 0.00 0.00 0.00 55 1006.5
20260831110038 80 100 3.0 11.0 0.00 0.00 0.00 51 1006.6
20260831104540 80 103 7.0 16.0 0.00 0.00 0.00 52 1006.5
20260831103038 80 98 8.0 18.0 0.00 0.00 0.00 51 1006.4
20260831101541 80 110 11.0 18.0 0.00 0.00 0.00 53 1006.5
20260831100029 80 100 7.0 14.0 0.00 0.00 0.00 54 1006.3
20260831094528 80 104 5.0 14.0 0.00 0.00 0.00 54 1006.3
20260831093025 80 100 8.0 16.0 0.00 0.00 0.00 53 1006.4
20260831091533 81 99 6.0 16.0 0.00 0.00 0.00 52 1006.2
20260831090023 82 136 7.0 19.0 0.00 0.00 0.00 51 1006.1
20260831084522 82 99 8.0 13.0 0.00 0.00 0.00 51 1006.0
20260831083021 82 120 6.0 10.0 0.00 0.00 0.00 51 1005.9
20260831081522 82 103 5.0 12.0 0.00 0.00 0.00 50 1006.0
20260831080019 82 119 3.0 8.0 0.00 0.00 0.00 50 1006.2
20260831074519 83 103 2.0 10.0 0.00 0.00 0.00 49 1006.2
20260831073019 83 105 2.0 8.0 0.00 0.00 0.00 48 1006.2
20260831071517 81 91 3.0 8.0 0.00 0.00 0.00 47 1006.2
20260831070020 80 96 0.0 2.0 0.00 0.00 0.00 44 1006.2
20260831064516 81 83 2.0 4.0 0.00 0.00 0.00 42 1006.2
20260831063015 80 68 2.0 4.0 0.00 0.00 0.00 40 1006.0
20260831061517 80 103 1.0 4.0 0.00 0.00 0.00 39 1006.0
20260831060011 79 75 2.0 5.0 0.00 0.00 0.00 47 1005.8
20260831054511 80 103 0.0 4.0 0.00 0.00 0.00 49 1005.8
20260831053009 80 118 3.0 6.0 0.00 0.00 0.00 49 1005.8
20260831051512 80 113 2.0 4.0 0.00 0.00 0.00 49 1005.6
20260831050004 82 138 3.0 6.0 0.00 0.00 0.00 49 1005.5
20260831044626 84 152 6.0 10.0 0.00 0.00 0.00 48 1005.7
20260831044502 84 161 6.0 10.0 0.00 0.00 0.00 48 1005.8
20260831043057 85 97 6.0 11.0 0.00 0.00 0.00 40 1005.8
20260831041612 85 97 3.0 12.0 0.00 0.00 0.00 45 1005.5
20260831040053 85 114 7.0 13.0 0.00 0.00 0.00 48 1005.5
20260831034553 85 98 6.0 14.0 0.00 0.00 0.00 48 1005.2
20260831033051 85 101 5.0 13.0 0.00 0.00 0.00 47 1005.1
20260831033002 85 108 5.0 13.0 0.00 0.00 0.00 47 1005.1
20260831031552 86 109 9.0 19.0 0.00 0.00 0.00 47 1004.8
20260831030052 86 110 10.0 19.0 0.00 0.00 0.00 49 1004.7
20260831024548 86 115 9.0 15.0 0.00 0.00 0.00 48 1004.6
20260831023047 87 101 6.0 12.0 0.00 0.00 0.00 46 1004.5